Weather History for New Delhi, India

Change the Weather History Date:

Sunday, September 29, 2013

  Actual Average Record
Temperature  
Mean Temperature 82 °F -  
Max Temperature 86 °F 88 °F 102 °F (1997)
Min Temperature 78 °F 67 °F 71 °F (2000)
Cooling Degree Days 17    
Growing Degree Days 32 (Base 50)    
Moisture  
Dew Point 76 °F    
Average Humidity 80    
Maximum Humidity 89    
Minimum Humidity 70    
Precipitation  
Precipitation 0.00 in - - ()
Sea Level Pressure  
Sea Level Pressure 29.68 in    
Wind  
Wind Speed 2 mph ()    
Max Wind Speed 10 mph    
Max Gust Speed -    
Visibility 1.5 miles    
Events      
Averages and records for this station are not official NWS values.
T = Trace of Precipitation, MM = Missing Value Source: Averaged Metar Reports

Daily Weather History Graph

Daily Weather History Graph

Search for Another Location

Airport:

Trip Planner

Search our weather history database for the weather conditions in past years. The results will help you decide how hot, cold, wet, or windy it might be!

Date:

Astronomy

Sep. 29, 2013 Rise Set
Actual Time 6:13 AM IST 6:09 PM IST
Civil Twilight 5:49 AM IST 6:33 PM IST
Nautical Twilight 5:22 AM IST 7:00 PM IST
Astronomical Twilight 4:55 AM IST 7:28 PM IST
Moon 12:52 AM IST (9/29) 2:27 PM IST (9/29)
Length of Visible Light 12h 43m
Length of Day
11h 56m
Waning Crescent, 31% of the Moon is Illuminated
Sep 29
Waning Crescent
Oct 5
New
Oct 12
First Quarter
Oct 19
Full
Oct 27
Last Quarter

Hourly Weather History & Observations

Time (IST) Temp. Heat Index Dew Point Humidity Pressure Visibility Wind Dir Wind Speed Gust Speed Precip Events Conditions
12:00 AM 86.0 °F 95.1 °F 75.2 °F 70% 29.71 in - Calm Calm - N/A   Haze
12:30 AM 84.2 °F 92.3 °F 75.2 °F 74% 29.71 in - Calm Calm - N/A   Haze
1:00 AM 84.2 °F 94.1 °F 77.0 °F 79% 29.71 in - Calm Calm - N/A   Mostly Cloudy
1:30 AM 84.2 °F 94.1 °F 77.0 °F 79% 29.68 in - ENE 5.8 mph - N/A   Mostly Cloudy
2:30 AM 84.2 °F 94.1 °F 77.0 °F 79% 29.68 in 1.6 mi SSW 4.6 mph - N/A   Mostly Cloudy
3:00 AM 82.4 °F 90.9 °F 77.0 °F 84% 29.68 in 1.6 mi Calm Calm - N/A   Mostly Cloudy
3:30 AM 82.4 °F 90.9 °F 77.0 °F 84% 29.65 in 1.6 mi Calm Calm - N/A   Mostly Cloudy
4:00 AM 82.4 °F 90.9 °F 77.0 °F 84% 29.65 in 1.6 mi Calm Calm - N/A   Mostly Cloudy
4:30 AM 82.4 °F 90.9 °F 77.0 °F 84% 29.65 in 1.6 mi Calm Calm - N/A   Mostly Cloudy
5:00 AM 82.4 °F 90.9 °F 77.0 °F 84% 29.68 in 1.6 mi Calm Calm - N/A   Mostly Cloudy
5:30 AM 82.4 °F 92.4 °F 78.8 °F 89% 29.68 in 1.6 mi Calm Calm - N/A   Mostly Cloudy
6:00 AM 82.4 °F 92.4 °F 78.8 °F 89% 29.68 in 1.6 mi Calm Calm - N/A   Mostly Cloudy
6:30 AM 84.2 °F 96.1 °F 78.8 °F 84% 29.68 in 1.6 mi NW 4.6 mph - N/A   Mostly Cloudy
7:00 AM 84.2 °F 96.1 °F 78.8 °F 84% 29.68 in 1.6 mi West 3.5 mph - N/A   Mostly Cloudy
7:30 AM 84.2 °F 94.1 °F 77.0 °F 79% 29.71 in 1.1 mi SW 2.3 mph - N/A   Mostly Cloudy
8:00 AM 84.2 °F 96.1 °F 78.8 °F 84% 29.71 in 1.0 mi West 4.6 mph - N/A   Mostly Cloudy
9:00 AM 84.2 °F 96.1 °F 78.8 °F 84% 29.74 in 0.9 mi West 3.5 mph - N/A   Mostly Cloudy
9:30 AM 86.0 °F 99.3 °F 78.8 °F 79% 29.74 in 0.9 mi NW 3.5 mph - N/A   Mostly Cloudy
10:00 AM 86.0 °F 99.3 °F 78.8 °F 79% 29.74 in 0.9 mi East 3.5 mph - N/A   Mostly Cloudy
10:30 AM 86.0 °F 99.3 °F 78.8 °F 79% 29.74 in 0.9 mi SSW 3.5 mph - N/A   Mostly Cloudy
11:00 AM 86.0 °F 99.3 °F 78.8 °F 79% 29.74 in 0.9 mi West 4.6 mph - N/A   Mostly Cloudy
11:30 AM 82.4 °F 92.4 °F 78.8 °F 89% 29.74 in 1.1 mi West 10.4 mph - N/A   Mostly Cloudy
12:00 PM 78.8 °F - 73.4 °F 83% 29.74 in 1.6 mi West 9.2 mph - N/A   Mostly Cloudy
1:00 PM 82.4 °F 87.2 °F 71.6 °F 70% 29.71 in 1.9 mi NE 5.8 mph - N/A   Mostly Cloudy
1:30 PM 82.4 °F 87.2 °F 71.6 °F 70% 29.71 in 1.9 mi ENE 4.6 mph - N/A   Haze
2:00 PM 82.4 °F 88.2 °F 73.4 °F 74% 29.68 in 1.9 mi NNW 5.8 mph - N/A   Haze
2:30 PM 84.2 °F 90.9 °F 73.4 °F 70% 29.65 in 1.9 mi NW 5.8 mph - N/A   Haze
3:00 PM 84.2 °F 92.3 °F 75.2 °F 74% 29.65 in 1.9 mi WNW 5.8 mph - N/A   Haze
3:30 PM 84.2 °F 92.3 °F 75.2 °F 74% 29.65 in 1.9 mi West 5.8 mph - N/A   Haze
4:00 PM 84.2 °F 92.3 °F 75.2 °F 74% 29.65 in 1.7 mi West 4.6 mph - N/A   Haze
4:30 PM 84.2 °F 92.3 °F 75.2 °F 74% 29.62 in 1.7 mi West 4.6 mph - N/A   Haze
5:00 PM 84.2 °F 92.3 °F 75.2 °F 74% 29.62 in 1.7 mi West 5.8 mph - N/A   Haze
5:30 PM 84.2 °F 94.1 °F 77.0 °F 79% 29.62 in 1.6 mi West 3.5 mph - N/A   Mostly Cloudy
6:00 PM 84.2 °F 94.1 °F 77.0 °F 79% 29.62 in 1.3 mi WSW 3.5 mph - N/A   Mostly Cloudy
6:30 PM 84.2 °F 94.1 °F 77.0 °F 79% 29.62 in 1.3 mi WSW 4.6 mph - N/A   Mostly Cloudy
7:00 PM 82.4 °F 89.5 °F 75.2 °F 79% 29.65 in 1.3 mi West 4.6 mph - N/A   Mostly Cloudy
7:30 PM 82.4 °F 89.5 °F 75.2 °F 79% 29.65 in 1.3 mi West 3.5 mph - N/A   Mostly Cloudy
8:00 PM 80.6 °F 87.1 °F 77.0 °F 89% 29.68 in 1.7 mi West 3.5 mph - N/A   Mostly Cloudy
9:00 PM 80.6 °F 86.2 °F 75.2 °F 84% 29.68 in - Calm Calm - N/A   Mostly Cloudy
9:30 PM 80.6 °F 86.2 °F 75.2 °F 84% 29.68 in - Calm Calm - N/A   Mostly Cloudy
10:30 PM 80.6 °F 87.1 °F 77.0 °F 89% 29.68 in 1.6 mi Calm Calm - N/A   Mostly Cloudy
11:00 PM 80.6 °F 87.1 °F 77.0 °F 89% 29.71 in 1.6 mi ENE 6.9 mph - N/A   Mostly Cloudy
11:30 PM 82.4 °F 89.5 °F 75.2 °F 79% 29.71 in 1.1 mi ENE 6.9 mph - N/A   Mostly Cloudy